Location: Sternwarte_Laufen
(47.9344°N, 12.9346°E)
Time: 16:08:22
(UTC+02:00)

ISS - Pass Details

Date: 13 May 2026
Orbit: 414 x 424 km, 51.6° (Epoch: 21 May)

Event Time Altitude Azimuth Distance (km) Brightness Sun altitude
Rises 00:08:03 0° 288° (WNW) 2,354 0.5 -22.5°
Reaches altitude 10° 00:10:11 10° 294° (WNW) 1,492 -0.5 -22.6°
Enters shadow 00:13:25 48° 8° (N) 556 -2.8 -22.8°
